Location: Antist
(43.1184°N, 0.1270°E)
Time: 06:03:28
(UTC+00:00)

ADEOS Rocket - Pass Details

Date: 19 January 2020
Orbit: 859 x 1306 km, 98.7° (Epoch: 23 February)

Event Time Altitude Azimuth Distance (km) Brightness Sun altitude
Exits shadow 18:19:50 - 23° (NNE) 3,474 5.5 -15.4°
Reaches altitude 10° 18:21:37 10° 29° (NNE) 2,866 5.1 -15.8°
Maximum altitude 18:27:41 39° 98° (E) 1,625 3.7 -16.8°
Drops below altitude 10° 18:34:18 10° 165° (SSE) 3,137 5.6 -18.0°
Sets 18:37:15 0° 172° (S) 4,153 6.3 -18.6°
